Year,Month,Day,Hour,Minute,Value (Times are PST for temperature in C)
2008,08,14,00,00,18.20
2008,08,14,00,01,18.10
2008,08,14,00,02,18.10
2008,08,14,00,03,18.10
2008,08,14,00,04,18.10
2008,08,14,00,05,18.10
2008,08,14,00,06,18.10
2008,08,14,00,07,17.90
2008,08,14,00,08,17.90
2008,08,14,00,09,17.90
2008,08,14,00,10,17.90
2008,08,14,00,11,17.90
2008,08,14,00,12,17.90
2008,08,14,00,13,17.90
2008,08,14,00,14,17.80
2008,08,14,00,15,17.80
2008,08,14,00,16,17.80
2008,08,14,00,17,17.80
2008,08,14,00,18,17.70
2008,08,14,00,19,17.70
2008,08,14,00,20,17.70
2008,08,14,00,21,17.70
2008,08,14,00,22,17.60
2008,08,14,00,23,17.60
2008,08,14,00,24,17.60
2008,08,14,00,25,17.60
2008,08,14,00,26,17.60
2008,08,14,00,27,17.60
2008,08,14,00,28,17.60
2008,08,14,00,29,17.60
2008,08,14,00,30,17.60
2008,08,14,00,31,17.60
2008,08,14,00,32,17.60
2008,08,14,00,33,17.60
2008,08,14,00,34,17.60
2008,08,14,00,35,17.60
2008,08,14,00,36,17.60
2008,08,14,00,37,17.60
2008,08,14,00,38,17.70
2008,08,14,00,39,17.70
2008,08,14,00,40,17.70
2008,08,14,00,41,17.70
2008,08,14,00,42,17.70
2008,08,14,00,43,17.70
2008,08,14,00,44,17.80
2008,08,14,00,45,17.80
2008,08,14,00,46,17.80
2008,08,14,00,47,17.80
2008,08,14,00,48,17.80
2008,08,14,00,49,17.80
2008,08,14,00,50,17.80
2008,08,14,00,51,17.70
2008,08,14,00,52,17.70
2008,08,14,00,53,17.70
2008,08,14,00,54,17.70
2008,08,14,00,55,17.70
2008,08,14,00,56,17.70
2008,08,14,00,57,17.60
2008,08,14,00,58,17.60
2008,08,14,00,59,17.60
2008,08,14,01,00,17.60
2008,08,14,01,01,17.50
2008,08,14,01,02,17.50
2008,08,14,01,03,17.50
2008,08,14,01,04,17.50
2008,08,14,01,05,17.50
2008,08,14,01,06,17.50
2008,08,14,01,07,17.50
2008,08,14,01,08,17.50
2008,08,14,01,09,17.50
2008,08,14,01,10,17.50
2008,08,14,01,11,17.50
2008,08,14,01,12,17.50
2008,08,14,01,13,17.50
2008,08,14,01,14,17.50
2008,08,14,01,15,17.50
2008,08,14,01,16,17.50
2008,08,14,01,17,17.50
2008,08,14,01,18,17.50
2008,08,14,01,19,17.50
2008,08,14,01,20,17.50
2008,08,14,01,21,17.50
2008,08,14,01,22,17.50
2008,08,14,01,23,17.50
2008,08,14,01,24,17.50
2008,08,14,01,25,17.50
2008,08,14,01,26,17.50
2008,08,14,01,27,17.50
2008,08,14,01,28,17.50
2008,08,14,01,29,17.50
2008,08,14,01,30,17.50
2008,08,14,01,31,17.50
2008,08,14,01,32,17.50
2008,08,14,01,33,17.50
2008,08,14,01,34,17.50
2008,08,14,01,35,17.50
2008,08,14,01,36,17.50
2008,08,14,01,37,17.40
2008,08,14,01,38,17.40
2008,08,14,01,39,17.40
2008,08,14,01,40,17.40
2008,08,14,01,41,17.40
2008,08,14,01,42,17.40
2008,08,14,01,43,17.40
2008,08,14,01,44,17.40
2008,08,14,01,45,17.40
2008,08,14,01,46,17.40
2008,08,14,01,47,17.30
2008,08,14,01,48,17.30
2008,08,14,01,49,17.30
2008,08,14,01,50,17.30
2008,08,14,01,51,17.30
2008,08,14,01,52,17.30
2008,08,14,01,53,17.30
2008,08,14,01,54,17.30
2008,08,14,01,55,17.30
2008,08,14,01,56,17.30
2008,08,14,01,57,17.30
2008,08,14,01,58,17.30
2008,08,14,01,59,17.30
2008,08,14,02,00,17.30
2008,08,14,02,01,17.30
2008,08,14,02,02,17.30
2008,08,14,02,03,17.30
2008,08,14,02,04,17.30
2008,08,14,02,05,17.30
2008,08,14,02,06,17.30
2008,08,14,02,07,17.30
2008,08,14,02,08,17.30
2008,08,14,02,09,17.30
2008,08,14,02,10,17.30
2008,08,14,02,11,17.30
2008,08,14,02,12,17.30
2008,08,14,02,13,17.30
2008,08,14,02,14,17.30
2008,08,14,02,15,17.30
2008,08,14,02,16,17.30
2008,08,14,02,17,17.20
2008,08,14,02,18,17.20
2008,08,14,02,19,17.20
2008,08,14,02,20,17.20
2008,08,14,02,21,17.10
2008,08,14,02,22,17.10
2008,08,14,02,23,17.10
2008,08,14,02,24,17.10
2008,08,14,02,25,17.10
2008,08,14,02,26,17.10
2008,08,14,02,27,17.10
2008,08,14,02,28,17.10
2008,08,14,02,29,17.10
2008,08,14,02,30,17.10
2008,08,14,02,31,17.10
2008,08,14,02,32,17.10
2008,08,14,02,33,17.10
2008,08,14,02,34,17.10
2008,08,14,02,35,17.10
2008,08,14,02,36,17.10
2008,08,14,02,37,17.10
2008,08,14,02,38,17.00
2008,08,14,02,39,17.10
2008,08,14,02,40,17.00
2008,08,14,02,41,17.00
2008,08,14,02,42,17.00
2008,08,14,02,43,17.00
2008,08,14,02,44,17.00
2008,08,14,02,45,17.00
2008,08,14,02,46,17.00
2008,08,14,02,47,17.00
2008,08,14,02,48,17.00
2008,08,14,02,49,17.10
2008,08,14,02,50,17.10
2008,08,14,02,51,17.10
2008,08,14,02,52,17.10
2008,08,14,02,53,17.10
2008,08,14,02,54,17.10
2008,08,14,02,55,17.10
2008,08,14,02,56,17.10
2008,08,14,02,57,17.10
2008,08,14,02,58,17.10
2008,08,14,02,59,17.10
2008,08,14,03,00,17.10
2008,08,14,03,01,17.10
2008,08,14,03,02,17.10
2008,08,14,03,03,17.00
2008,08,14,03,04,17.00
2008,08,14,03,05,17.00
2008,08,14,03,06,17.00
2008,08,14,03,07,17.00
2008,08,14,03,08,17.00
2008,08,14,03,09,17.00
2008,08,14,03,10,17.00
2008,08,14,03,11,17.00
2008,08,14,03,12,17.00
2008,08,14,03,13,17.00
2008,08,14,03,14,17.00
2008,08,14,03,15,17.00
2008,08,14,03,16,17.00
2008,08,14,03,17,17.00
2008,08,14,03,18,17.00
2008,08,14,03,19,16.90
2008,08,14,03,20,16.90
2008,08,14,03,21,16.90
2008,08,14,03,22,16.90
2008,08,14,03,23,16.90
2008,08,14,03,24,16.90
2008,08,14,03,25,16.90
2008,08,14,03,26,16.90
2008,08,14,03,27,16.90
2008,08,14,03,28,16.90
2008,08,14,03,29,16.90
2008,08,14,03,30,16.80
2008,08,14,03,31,16.80
2008,08,14,03,32,16.80
2008,08,14,03,33,16.80
2008,08,14,03,34,16.80
2008,08,14,03,35,16.80
2008,08,14,03,36,16.70
2008,08,14,03,37,16.70
2008,08,14,03,38,16.70
2008,08,14,03,39,16.70
2008,08,14,03,40,16.70
2008,08,14,03,41,16.70
2008,08,14,03,42,16.70
2008,08,14,03,43,16.70
2008,08,14,03,44,16.70
2008,08,14,03,45,16.70
2008,08,14,03,46,16.70
2008,08,14,03,47,16.70
2008,08,14,03,48,16.70
2008,08,14,03,49,16.70
2008,08,14,03,50,16.70
2008,08,14,03,51,16.70
2008,08,14,03,52,16.70
2008,08,14,03,53,16.70
2008,08,14,03,54,16.70
2008,08,14,03,55,16.70
2008,08,14,03,56,16.70
2008,08,14,03,57,16.80
2008,08,14,03,58,16.80
2008,08,14,03,59,16.80
2008,08,14,04,00,16.80
2008,08,14,04,01,16.80
2008,08,14,04,02,16.80
2008,08,14,04,03,16.80
2008,08,14,04,04,16.80
2008,08,14,04,05,16.80
2008,08,14,04,06,16.80
2008,08,14,04,07,16.80
2008,08,14,04,08,16.80
2008,08,14,04,09,16.70
2008,08,14,04,10,16.70
2008,08,14,04,11,16.70
2008,08,14,04,12,16.70
2008,08,14,04,13,16.70
2008,08,14,04,14,16.70
2008,08,14,04,15,16.70
2008,08,14,04,16,16.70
2008,08,14,04,17,16.70
2008,08,14,04,18,16.70
2008,08,14,04,19,16.70
2008,08,14,04,20,16.70
2008,08,14,04,21,16.70
2008,08,14,04,22,16.70
2008,08,14,04,23,16.70
2008,08,14,04,24,16.60
2008,08,14,04,25,16.60
2008,08,14,04,26,16.60
2008,08,14,04,27,16.60
2008,08,14,04,28,16.60
2008,08,14,04,29,16.60
2008,08,14,04,30,16.60
2008,08,14,04,31,16.60
2008,08,14,04,32,16.60
2008,08,14,04,33,16.60
2008,08,14,04,34,16.60
2008,08,14,04,35,16.60
2008,08,14,04,36,16.50
2008,08,14,04,37,16.40
2008,08,14,04,38,16.40
2008,08,14,04,39,16.40
2008,08,14,04,40,16.40
2008,08,14,04,41,16.40
2008,08,14,04,42,16.40
2008,08,14,04,43,16.40
2008,08,14,04,44,16.40
2008,08,14,04,45,16.40
2008,08,14,04,46,16.40
2008,08,14,04,47,16.30
2008,08,14,04,48,16.30
2008,08,14,04,49,16.30
2008,08,14,04,50,16.30
2008,08,14,04,51,16.30
2008,08,14,04,52,16.30
2008,08,14,04,53,16.30
2008,08,14,04,54,16.30
2008,08,14,04,55,16.30
2008,08,14,04,56,16.30
2008,08,14,04,57,16.30
2008,08,14,04,58,16.20
2008,08,14,04,59,16.20
2008,08,14,05,00,16.20
2008,08,14,05,01,16.20
2008,08,14,05,02,16.20
2008,08,14,05,03,16.20
2008,08,14,05,04,16.20
2008,08,14,05,05,16.20
2008,08,14,05,06,16.10
2008,08,14,05,07,16.10
2008,08,14,05,08,16.10
2008,08,14,05,09,16.10
2008,08,14,05,10,16.20
2008,08,14,05,11,16.20
2008,08,14,05,12,16.20
2008,08,14,05,13,16.20
2008,08,14,05,14,16.20
2008,08,14,05,15,16.20
2008,08,14,05,16,16.20
2008,08,14,05,17,16.20
2008,08,14,05,18,16.10
2008,08,14,05,19,16.20
2008,08,14,05,20,16.20
2008,08,14,05,21,16.20
2008,08,14,05,22,16.20
2008,08,14,05,23,16.20
2008,08,14,05,24,16.20
2008,08,14,05,25,16.20
2008,08,14,05,26,16.20
2008,08,14,05,27,16.20
2008,08,14,05,28,16.20
2008,08,14,05,29,16.10
2008,08,14,05,30,16.10
2008,08,14,05,31,16.10
2008,08,14,05,32,16.10
2008,08,14,05,33,16.10
2008,08,14,05,34,16.10
2008,08,14,05,35,16.10
2008,08,14,05,36,16.10
2008,08,14,05,37,16.10
2008,08,14,05,38,16.10
2008,08,14,05,39,16.10
2008,08,14,05,40,16.10
2008,08,14,05,41,16.10
2008,08,14,05,42,16.10
2008,08,14,05,43,16.10
2008,08,14,05,44,16.10
2008,08,14,05,45,16.10
2008,08,14,05,46,16.10
2008,08,14,05,47,16.10
2008,08,14,05,48,16.10
2008,08,14,05,49,16.10
2008,08,14,05,50,16.00
2008,08,14,05,51,16.00
2008,08,14,05,52,16.00
2008,08,14,05,53,16.10
2008,08,14,05,54,16.10
2008,08,14,05,55,16.10
2008,08,14,05,56,16.10
2008,08,14,05,57,16.00
2008,08,14,05,58,15.90
2008,08,14,05,59,15.90
2008,08,14,06,00,15.90
2008,08,14,06,01,15.90
2008,08,14,06,02,15.90
2008,08,14,06,03,15.90
2008,08,14,06,04,15.90
2008,08,14,06,05,15.90
2008,08,14,06,06,15.90
2008,08,14,06,07,15.90
2008,08,14,06,08,15.80
2008,08,14,06,09,15.80
2008,08,14,06,10,15.80
2008,08,14,06,11,15.80
2008,08,14,06,12,15.80
2008,08,14,06,13,15.80
2008,08,14,06,14,15.80
2008,08,14,06,15,15.80
2008,08,14,06,16,15.80
2008,08,14,06,17,15.70
2008,08,14,06,18,15.70
2008,08,14,06,19,15.70
2008,08,14,06,20,15.70
2008,08,14,06,21,15.70
2008,08,14,06,22,15.70
2008,08,14,06,23,15.70
2008,08,14,06,24,15.60
2008,08,14,06,25,15.60
2008,08,14,06,26,15.60
2008,08,14,06,27,15.60
2008,08,14,06,28,15.50
2008,08,14,06,29,15.50
2008,08,14,06,30,15.50
2008,08,14,06,31,15.50
2008,08,14,06,32,15.50
2008,08,14,06,33,15.50
2008,08,14,06,34,15.50
2008,08,14,06,35,15.50
2008,08,14,06,36,15.50
2008,08,14,06,37,15.50
2008,08,14,06,38,15.50
2008,08,14,06,39,15.50
2008,08,14,06,40,15.50
2008,08,14,06,41,15.50
2008,08,14,06,42,15.50
2008,08,14,06,43,15.50
2008,08,14,06,44,15.50
2008,08,14,06,45,15.50
2008,08,14,06,46,15.50
2008,08,14,06,47,15.50
2008,08,14,06,48,15.50
2008,08,14,06,49,15.50
2008,08,14,06,50,15.60
2008,08,14,06,51,15.60
2008,08,14,06,52,15.60
2008,08,14,06,53,15.60
2008,08,14,06,54,15.60
2008,08,14,06,55,15.70
2008,08,14,06,56,15.70
2008,08,14,06,57,15.70
2008,08,14,06,58,15.70
2008,08,14,06,59,15.70
2008,08,14,07,00,15.70
2008,08,14,07,01,15.70
2008,08,14,07,02,15.80
2008,08,14,07,03,15.80
2008,08,14,07,04,15.80
2008,08,14,07,05,15.80
2008,08,14,07,06,15.80
2008,08,14,07,07,15.80
2008,08,14,07,08,15.80
2008,08,14,07,09,15.80
2008,08,14,07,10,15.80
2008,08,14,07,11,15.80
2008,08,14,07,12,15.80
2008,08,14,07,13,15.80
2008,08,14,07,14,15.80
2008,08,14,07,15,15.80
2008,08,14,07,16,15.80
2008,08,14,07,17,15.80
2008,08,14,07,18,15.80
2008,08,14,07,19,15.80
2008,08,14,07,20,15.90
2008,08,14,07,21,15.90
2008,08,14,07,22,15.90
2008,08,14,07,23,15.90
2008,08,14,07,24,15.90
2008,08,14,07,25,15.90
2008,08,14,07,26,15.90
2008,08,14,07,27,16.10
2008,08,14,07,28,16.10
2008,08,14,07,29,16.10
2008,08,14,07,30,16.10
2008,08,14,07,31,16.10
2008,08,14,07,32,16.10
2008,08,14,07,33,16.10
2008,08,14,07,34,16.10
2008,08,14,07,35,16.10
2008,08,14,07,36,16.10
2008,08,14,07,37,16.10
2008,08,14,07,38,16.10
2008,08,14,07,39,16.10
2008,08,14,07,40,16.10
2008,08,14,07,41,16.10
2008,08,14,07,42,16.20
2008,08,14,07,43,16.20
2008,08,14,07,44,16.20
2008,08,14,07,45,16.30
2008,08,14,07,46,16.30
2008,08,14,07,47,16.30
2008,08,14,07,48,16.40
2008,08,14,07,49,16.40
2008,08,14,07,50,16.50
2008,08,14,07,51,16.60
2008,08,14,07,52,16.70
2008,08,14,07,53,16.80
2008,08,14,07,54,16.90
2008,08,14,07,55,16.90
2008,08,14,07,56,17.00
2008,08,14,07,57,17.20
2008,08,14,07,58,17.30
2008,08,14,07,59,17.30
2008,08,14,08,00,17.40
2008,08,14,08,01,17.50
2008,08,14,08,02,17.60
2008,08,14,08,03,17.70
2008,08,14,08,04,17.80
2008,08,14,08,05,17.80
2008,08,14,08,06,17.90
2008,08,14,08,07,17.90
2008,08,14,08,08,18.00
2008,08,14,08,09,18.10
2008,08,14,08,10,18.20
2008,08,14,08,11,18.30
2008,08,14,08,12,18.40
2008,08,14,08,13,18.50
2008,08,14,08,14,18.60
2008,08,14,08,15,18.60
2008,08,14,08,16,18.70
2008,08,14,08,17,18.70
2008,08,14,08,18,18.80
2008,08,14,08,19,18.90
2008,08,14,08,20,19.00
2008,08,14,08,21,19.10
2008,08,14,08,22,19.10
2008,08,14,08,23,19.10
2008,08,14,08,24,19.10
2008,08,14,08,25,19.20
2008,08,14,08,26,19.30
2008,08,14,08,27,19.30
2008,08,14,08,28,19.30
2008,08,14,08,29,19.40
2008,08,14,08,30,19.40
2008,08,14,08,31,19.50
2008,08,14,08,32,19.50
2008,08,14,08,33,19.60
2008,08,14,08,34,19.60
2008,08,14,08,35,19.60
2008,08,14,08,36,19.60
2008,08,14,08,37,19.60
2008,08,14,08,38,19.60
2008,08,14,08,39,19.60
2008,08,14,08,40,19.70
2008,08,14,08,41,19.70
2008,08,14,08,42,19.80
2008,08,14,08,43,19.80
2008,08,14,08,44,19.90
2008,08,14,08,45,19.90
2008,08,14,08,46,19.90
2008,08,14,08,47,19.90
2008,08,14,08,48,19.90
2008,08,14,08,49,20.00
2008,08,14,08,50,20.10
2008,08,14,08,51,20.10
2008,08,14,08,52,20.20
2008,08,14,08,53,20.20
2008,08,14,08,54,20.20
2008,08,14,08,55,20.30
2008,08,14,08,56,20.40
2008,08,14,08,57,20.50
2008,08,14,08,58,20.50
2008,08,14,08,59,20.60
2008,08,14,09,00,20.60
2008,08,14,09,01,20.70
2008,08,14,09,02,20.70
2008,08,14,09,03,20.80
2008,08,14,09,04,20.80
2008,08,14,09,05,20.80
2008,08,14,09,06,20.90
2008,08,14,09,07,20.90
2008,08,14,09,08,20.90
2008,08,14,09,09,20.90
2008,08,14,09,10,20.90
2008,08,14,09,11,20.90
2008,08,14,09,12,20.90
2008,08,14,09,13,21.00
2008,08,14,09,14,21.10
2008,08,14,09,15,21.10
2008,08,14,09,16,21.10
2008,08,14,09,17,21.20
2008,08,14,09,18,21.10
2008,08,14,09,19,21.10
2008,08,14,09,20,21.10
2008,08,14,09,21,21.10
2008,08,14,09,22,21.10
2008,08,14,09,23,21.10
2008,08,14,09,24,21.20
2008,08,14,09,25,21.20
2008,08,14,09,26,21.20
2008,08,14,09,27,21.20
2008,08,14,09,28,21.20
2008,08,14,09,29,21.20
2008,08,14,09,30,21.20
2008,08,14,09,31,21.20
2008,08,14,09,32,21.20
2008,08,14,09,33,21.20
2008,08,14,09,34,21.30
2008,08,14,09,35,21.30
2008,08,14,09,36,21.30
2008,08,14,09,37,21.30
2008,08,14,09,38,21.30
2008,08,14,09,39,21.30
2008,08,14,09,40,21.30
2008,08,14,09,41,21.30
2008,08,14,09,42,21.40
2008,08,14,09,43,21.40
2008,08,14,09,44,21.40
2008,08,14,09,45,21.50
2008,08,14,09,46,21.60
2008,08,14,09,47,21.60
2008,08,14,09,48,21.60
2008,08,14,09,49,21.60
2008,08,14,09,50,21.70
2008,08,14,09,51,21.70
2008,08,14,09,52,21.80
2008,08,14,09,53,21.80
2008,08,14,09,54,21.90
2008,08,14,09,55,21.90
2008,08,14,09,56,21.90
2008,08,14,09,57,22.00
2008,08,14,09,58,22.00
2008,08,14,09,59,22.00
2008,08,14,10,00,22.00
2008,08,14,10,01,22.10
2008,08,14,10,02,22.10
2008,08,14,10,03,22.10
2008,08,14,10,04,22.10
2008,08,14,10,05,22.10
2008,08,14,10,06,22.10
2008,08,14,10,07,22.10
2008,08,14,10,08,22.10
2008,08,14,10,09,22.20
2008,08,14,10,10,22.20
2008,08,14,10,11,22.20
2008,08,14,10,12,22.20
2008,08,14,10,13,22.30
2008,08,14,10,14,22.30
2008,08,14,10,15,22.40
2008,08,14,10,16,22.50
2008,08,14,10,17,22.60
2008,08,14,10,18,22.60
2008,08,14,10,19,22.70
2008,08,14,10,20,22.90
2008,08,14,10,21,22.90
2008,08,14,10,22,23.00
2008,08,14,10,23,23.10
2008,08,14,10,24,23.30
2008,08,14,10,25,23.30
2008,08,14,10,26,23.40
2008,08,14,10,27,23.40
2008,08,14,10,28,23.40
2008,08,14,10,29,23.40
2008,08,14,10,30,23.40
2008,08,14,10,31,23.40
2008,08,14,10,32,23.40
2008,08,14,10,33,23.30
2008,08,14,10,34,23.30
2008,08,14,10,35,23.30
2008,08,14,10,36,23.30
2008,08,14,10,37,23.30
2008,08,14,10,38,23.30
2008,08,14,10,39,23.30
2008,08,14,10,40,23.30
2008,08,14,10,41,23.30
2008,08,14,10,42,23.40
2008,08,14,10,43,23.60
2008,08,14,10,44,23.70
2008,08,14,10,45,23.70
2008,08,14,10,46,23.70
2008,08,14,10,47,23.60
2008,08,14,10,48,23.60
2008,08,14,10,49,23.60
2008,08,14,10,50,23.60
2008,08,14,10,51,23.50
2008,08,14,10,52,23.60
2008,08,14,10,53,23.60
2008,08,14,10,54,23.70
2008,08,14,10,55,23.70
2008,08,14,10,56,23.70
2008,08,14,10,57,23.70
2008,08,14,10,58,23.70
2008,08,14,10,59,23.70
2008,08,14,11,00,23.70
2008,08,14,11,01,23.70
2008,08,14,11,02,23.70
2008,08,14,11,03,23.70
2008,08,14,11,04,23.70
2008,08,14,11,05,23.80
2008,08,14,11,06,23.90
2008,08,14,11,07,23.90
2008,08,14,11,08,24.00
2008,08,14,11,09,24.10
2008,08,14,11,10,24.10
2008,08,14,11,11,24.10
2008,08,14,11,12,24.20
2008,08,14,11,13,24.30
2008,08,14,11,14,24.40
2008,08,14,11,15,24.40
2008,08,14,11,16,24.40
2008,08,14,11,17,24.40
2008,08,14,11,18,24.50
2008,08,14,11,19,24.50
2008,08,14,11,20,24.50
2008,08,14,11,21,24.60
2008,08,14,11,22,24.70
2008,08,14,11,23,24.80
2008,08,14,11,24,24.80
2008,08,14,11,25,24.80
2008,08,14,11,26,24.70
2008,08,14,11,27,24.70
2008,08,14,11,28,24.60
2008,08,14,11,29,24.60
2008,08,14,11,30,24.70
2008,08,14,11,31,24.70
2008,08,14,11,32,24.70
2008,08,14,11,33,24.70
2008,08,14,11,34,24.80
2008,08,14,11,35,24.90
2008,08,14,11,36,25.00
2008,08,14,11,37,25.00
2008,08,14,11,38,25.00
2008,08,14,11,39,25.00
2008,08,14,11,40,25.00
2008,08,14,11,41,25.00
2008,08,14,11,42,25.10
2008,08,14,11,43,25.10
2008,08,14,11,44,24.90
2008,08,14,11,45,24.90
2008,08,14,11,46,24.90
2008,08,14,11,47,24.90
2008,08,14,11,48,25.00
2008,08,14,11,49,25.00
2008,08,14,11,50,25.10
2008,08,14,11,51,25.10
2008,08,14,11,52,25.20
2008,08,14,11,53,25.30
2008,08,14,11,54,25.40
2008,08,14,11,55,25.40
2008,08,14,11,56,25.40
2008,08,14,11,57,25.50
2008,08,14,11,58,25.50
2008,08,14,11,59,25.40
2008,08,14,12,00,25.40
2008,08,14,12,01,25.50
2008,08,14,12,02,25.60
2008,08,14,12,03,25.60
2008,08,14,12,04,25.60
2008,08,14,12,05,25.50
2008,08,14,12,06,25.50
2008,08,14,12,07,25.60
2008,08,14,12,08,25.60
2008,08,14,12,09,25.60
2008,08,14,12,10,25.50
2008,08,14,12,11,25.50
2008,08,14,12,12,25.50
2008,08,14,12,13,25.50
2008,08,14,12,14,25.50
2008,08,14,12,15,25.50
2008,08,14,12,16,25.60
2008,08,14,12,17,25.60
2008,08,14,12,18,25.70
2008,08,14,12,19,25.70
2008,08,14,12,20,25.70
2008,08,14,12,21,25.80
2008,08,14,12,22,25.90
2008,08,14,12,23,25.90
2008,08,14,12,24,25.90
2008,08,14,12,25,25.90
2008,08,14,12,26,26.00
2008,08,14,12,27,26.10
2008,08,14,12,28,26.20
2008,08,14,12,29,26.20
2008,08,14,12,30,26.30
2008,08,14,12,31,26.50
2008,08,14,12,32,26.60
2008,08,14,12,33,26.60
2008,08,14,12,34,26.40
2008,08,14,12,35,26.40
2008,08,14,12,36,26.40
2008,08,14,12,37,26.40
2008,08,14,12,38,26.30
2008,08,14,12,39,26.40
2008,08,14,12,40,26.40
2008,08,14,12,41,26.60
2008,08,14,12,42,26.50
2008,08,14,12,43,26.40
2008,08,14,12,44,26.40
2008,08,14,12,45,26.40
2008,08,14,12,46,26.40
2008,08,14,12,47,26.30
2008,08,14,12,48,26.30
2008,08,14,12,49,26.30
2008,08,14,12,50,26.30
2008,08,14,12,51,26.30
2008,08,14,12,52,26.40
2008,08,14,12,53,26.50
2008,08,14,12,54,26.60
2008,08,14,12,55,26.70
2008,08,14,12,56,26.80
2008,08,14,12,57,26.90
2008,08,14,12,58,26.90
2008,08,14,12,59,26.90
2008,08,14,13,00,27.10
2008,08,14,13,01,27.10
2008,08,14,13,02,27.10
2008,08,14,13,03,27.20
2008,08,14,13,04,27.20
2008,08,14,13,05,27.20
2008,08,14,13,06,27.30
2008,08,14,13,07,27.30
2008,08,14,13,08,27.30
2008,08,14,13,09,27.30
2008,08,14,13,10,27.40
2008,08,14,13,11,27.40
2008,08,14,13,12,27.40
2008,08,14,13,13,27.40
2008,08,14,13,14,27.50
2008,08,14,13,15,27.60
2008,08,14,13,16,27.70
2008,08,14,13,17,27.70
2008,08,14,13,18,27.80
2008,08,14,13,19,27.80
2008,08,14,13,20,27.90
2008,08,14,13,21,27.90
2008,08,14,13,22,27.90
2008,08,14,13,23,27.80
2008,08,14,13,24,27.80
2008,08,14,13,25,27.80
2008,08,14,13,26,27.80
2008,08,14,13,27,27.90
2008,08,14,13,28,27.90
2008,08,14,13,29,28.00
2008,08,14,13,30,28.10
2008,08,14,13,31,28.10
2008,08,14,13,32,28.10
2008,08,14,13,33,28.10
2008,08,14,13,34,28.20
2008,08,14,13,35,28.20
2008,08,14,13,36,28.20
2008,08,14,13,37,28.20
2008,08,14,13,38,28.10
2008,08,14,13,39,28.10
2008,08,14,13,40,28.20
2008,08,14,13,41,28.20
2008,08,14,13,42,28.20
2008,08,14,13,43,28.10
2008,08,14,13,44,28.00
2008,08,14,13,45,28.00
2008,08,14,13,46,28.00
2008,08,14,13,47,28.00
2008,08,14,13,48,28.00
2008,08,14,13,49,28.00
2008,08,14,13,50,28.00
2008,08,14,13,51,28.10
2008,08,14,13,52,28.20
2008,08,14,13,53,28.30
2008,08,14,13,54,28.40
2008,08,14,13,55,28.40
2008,08,14,13,56,28.40
2008,08,14,13,57,28.50
2008,08,14,13,58,28.60
2008,08,14,13,59,28.40
2008,08,14,14,00,28.30
2008,08,14,14,01,28.30
2008,08,14,14,02,28.30
2008,08,14,14,03,28.30
2008,08,14,14,04,28.20
2008,08,14,14,05,28.20
2008,08,14,14,06,28.20
2008,08,14,14,07,28.30
2008,08,14,14,08,28.30
2008,08,14,14,09,28.40
2008,08,14,14,10,28.50
2008,08,14,14,11,28.60
2008,08,14,14,12,28.60
2008,08,14,14,13,28.60
2008,08,14,14,14,28.70
2008,08,14,14,15,28.80
2008,08,14,14,16,28.80
2008,08,14,14,17,28.90
2008,08,14,14,18,28.90
2008,08,14,14,19,28.90
2008,08,14,14,20,29.10
2008,08,14,14,21,29.20
2008,08,14,14,22,29.20
2008,08,14,14,23,29.20
2008,08,14,14,24,29.10
2008,08,14,14,25,28.90
2008,08,14,14,26,28.90
2008,08,14,14,27,28.90
2008,08,14,14,28,28.90
2008,08,14,14,29,28.90
2008,08,14,14,30,28.90
2008,08,14,14,31,28.80
2008,08,14,14,32,28.70
2008,08,14,14,33,28.60
2008,08,14,14,34,28.70
2008,08,14,14,35,28.80
2008,08,14,14,36,28.90
2008,08,14,14,37,29.10
2008,08,14,14,38,29.20
2008,08,14,14,39,29.30
2008,08,14,14,40,29.30
2008,08,14,14,41,29.40
2008,08,14,14,42,29.30
2008,08,14,14,43,29.30
2008,08,14,14,44,29.20
2008,08,14,14,45,29.10
2008,08,14,14,46,29.10
2008,08,14,14,47,29.10
2008,08,14,14,48,29.10
2008,08,14,14,49,29.20
2008,08,14,14,50,29.20
2008,08,14,14,51,29.20
2008,08,14,14,52,29.20
2008,08,14,14,53,29.30
2008,08,14,14,54,29.30
2008,08,14,14,55,29.40
2008,08,14,14,56,29.40
2008,08,14,14,57,29.50
2008,08,14,14,58,29.40
2008,08,14,14,59,29.40
2008,08,14,15,00,29.40
2008,08,14,15,01,29.40
2008,08,14,15,02,29.40
2008,08,14,15,03,29.40
2008,08,14,15,04,29.40
2008,08,14,15,05,29.40
2008,08,14,15,06,29.30
2008,08,14,15,07,29.30
2008,08,14,15,08,29.20
2008,08,14,15,09,29.20
2008,08,14,15,10,29.20
2008,08,14,15,11,29.30
2008,08,14,15,12,29.30
2008,08,14,15,13,29.30
2008,08,14,15,14,29.20
2008,08,14,15,15,29.10
2008,08,14,15,16,29.10
2008,08,14,15,17,29.00
2008,08,14,15,18,29.10
2008,08,14,15,19,29.00
2008,08,14,15,20,28.90
2008,08,14,15,21,28.90
2008,08,14,15,22,29.00
2008,08,14,15,23,29.10
2008,08,14,15,24,29.10
2008,08,14,15,25,29.10
2008,08,14,15,26,29.30
2008,08,14,15,27,29.30
2008,08,14,15,28,29.30
2008,08,14,15,29,29.20
2008,08,14,15,30,29.20
2008,08,14,15,31,29.30
2008,08,14,15,32,29.20
2008,08,14,15,33,29.10
2008,08,14,15,34,29.00
2008,08,14,15,35,28.90
2008,08,14,15,36,28.90
2008,08,14,15,37,29.00
2008,08,14,15,38,29.10
2008,08,14,15,39,29.10
2008,08,14,15,40,29.00
2008,08,14,15,41,29.10
2008,08,14,15,42,29.10
2008,08,14,15,43,29.20
2008,08,14,15,44,29.30
2008,08,14,15,45,29.40
2008,08,14,15,46,29.40
2008,08,14,15,47,29.40
2008,08,14,15,48,29.30
2008,08,14,15,49,29.10
2008,08,14,15,50,28.90
2008,08,14,15,51,28.90
2008,08,14,15,52,28.80
2008,08,14,15,53,28.80
2008,08,14,15,54,28.80
2008,08,14,15,55,28.80
2008,08,14,15,56,28.90
2008,08,14,15,57,28.90
2008,08,14,15,58,28.90
2008,08,14,15,59,28.90
2008,08,14,16,00,28.90
2008,08,14,16,01,28.90
2008,08,14,16,02,29.10
2008,08,14,16,03,29.20
2008,08,14,16,04,29.10
2008,08,14,16,05,29.10
2008,08,14,16,06,29.00
2008,08,14,16,07,29.10
2008,08,14,16,08,29.00
2008,08,14,16,09,28.90
2008,08,14,16,10,28.90
2008,08,14,16,11,28.90
2008,08,14,16,12,28.90
2008,08,14,16,13,28.90
2008,08,14,16,14,28.90
2008,08,14,16,15,28.90
2008,08,14,16,16,28.80
2008,08,14,16,17,28.70
2008,08,14,16,18,28.70
2008,08,14,16,19,28.70
2008,08,14,16,20,28.70
2008,08,14,16,21,28.80
2008,08,14,16,22,28.80
2008,08,14,16,23,28.80
2008,08,14,16,24,28.80
2008,08,14,16,25,28.80
2008,08,14,16,26,28.90
2008,08,14,16,27,28.90
2008,08,14,16,28,28.90
2008,08,14,16,29,28.90
2008,08,14,16,30,28.80
2008,08,14,16,31,28.80
2008,08,14,16,32,28.90
2008,08,14,16,33,28.90
2008,08,14,16,34,28.90
2008,08,14,16,35,28.90
2008,08,14,16,36,29.00
2008,08,14,16,37,29.20
2008,08,14,16,38,29.30
2008,08,14,16,39,29.30
2008,08,14,16,40,29.20
2008,08,14,16,41,29.20
2008,08,14,16,42,29.20
2008,08,14,16,43,29.20
2008,08,14,16,44,29.30
2008,08,14,16,45,29.30
2008,08,14,16,46,29.40
2008,08,14,16,47,29.40
2008,08,14,16,48,29.40
2008,08,14,16,49,29.30
2008,08,14,16,50,29.30
2008,08,14,16,51,29.20
2008,08,14,16,52,29.10
2008,08,14,16,53,29.10
2008,08,14,16,54,29.20
2008,08,14,16,55,29.20
2008,08,14,16,56,29.30
2008,08,14,16,57,29.40
2008,08,14,16,58,29.50
2008,08,14,16,59,29.70
2008,08,14,17,00,29.80
2008,08,14,17,01,29.70
2008,08,14,17,02,29.70
2008,08,14,17,03,29.70
2008,08,14,17,04,29.60
2008,08,14,17,05,29.60
2008,08,14,17,06,29.60
2008,08,14,17,07,29.50
2008,08,14,17,08,29.40
2008,08,14,17,09,29.40
2008,08,14,17,10,29.40
2008,08,14,17,11,29.40
2008,08,14,17,12,29.30
2008,08,14,17,13,29.20
2008,08,14,17,14,29.20
2008,08,14,17,15,29.20
2008,08,14,17,16,29.20
2008,08,14,17,17,29.20
2008,08,14,17,18,29.40
2008,08,14,17,19,29.40